Home > Time Zones > World Clock > Weather > India > Bundi > Past weeks

Flag for India Weather past 2 weeks in Bundi, Rajasthan, India

Now
54 °F

Fog.


Feels Like: 52 °F
Forecast: 45 / 75 °F
Wind: 6 mph from Southeast

Location: Jaipur / Sanganer

Current Time: Dec 22, 2014 at 12:45:19 PM

Latest Report: Dec 22, 2014 at 11:00 AM


Visibility: 1 mi

Pressure: 30.09 "Hg

Humidity: 82%

Dew point: 48 °F

Location of BundiLocation

Historic Weather in Bundi — Graph

°F

Bundi temperature yesterday

Maximum temperature yesterday: 70 °F (at 2:00 PM)
Minimum temperature yesterday: 43 °F (at 7:00 AM)
Average temperature yesterday: 59 °F

Past Weeks' High & Low Weather Summary

 TemperatureHumidityPressure
High81 °F (Dec 8, 1:00 PM)100% (Dec 14, 8:00 AM)30.24 "Hg (Dec 14, 8:00 AM)
Low43 °F (Dec 21, 7:00 AM)12% (Dec 11, 3:00 PM)29.71 "Hg (Dec 12, 3:00 PM)
Average61 °F56%30.08 "Hg
* Reported Dec 7 11:00 AM — Dec 22 11:00 AM, Bundi, Weather by CustomWeather, © 2014

Note: Actual official high and low records may vary slightly from our data, if they occured in-between our weather recording intervals... More about our weather records

Advertising

Bundi weather history for previous 24 hours

 ConditionsComfort  
Time TempWeatherWind HumidityBarometerVisibility
11:00 AM
Dec 22
54 °FFog.6 mph82%30.09 "Hg1 mi
9:00 AM48 °FFog.7 mph100%30.07 "Hg0 mi
8:30 AM48 °FFog.7 mph100%30.04 "Hg1 mi
8:00 AM46 °FFog.6 mph100%30.04 "Hg1 mi
7:30 AM46 °FFog.6 mph100%30.04 "Hg1 mi
6:00 AM46 °FFog.5 mph100%30.01 "Hg1 mi
5:00 AM46 °FFog.5 mph100%30.01 "Hg1 mi
4:00 AM48 °FFog.6 mph100%30.01 "Hg0 mi
3:00 AM48 °FFog.5 mph100%30.01 "Hg1 mi
2:00 AM48 °FFog.7 mph100%30.01 "Hg1 mi
1:00 AM48 °FFog.6 mph100%30.04 "Hg1 mi
12:00 AM50 °FFog.7 mph94%30.07 "Hg1 mi
9:00 PM
Dec 21
59 °FPassing clouds.5 mph55%30.07 "Hg1 mi
8:30 PM59 °FPassing clouds.2 mph55%30.04 "Hg1 mi
8:00 PM61 °FPassing clouds.2 mph52%30.04 "Hg1 mi
7:30 PM63 °FPassing clouds.3 mph49%30.04 "Hg1 mi
7:00 PM63 °FPassing clouds.3 mph49%30.04 "Hg1 mi
6:00 PM64 °FHaze.3 mph46%30.01 "Hg1 mi
5:30 PM68 °FHaze.2 mph38%29.98 "Hg1 mi
4:00 PM70 °FHaze.5 mph33%29.98 "Hg1 mi
3:00 PM70 °FHaze.6 mph33%30.01 "Hg1 mi
2:00 PM70 °FHaze.5 mph33%30.01 "Hg1 mi
1:00 PM68 °FHaze.5 mph38%30.07 "Hg1 mi
12:00 PM66 °FPassing clouds.5 mph40%30.09 "Hg1 mi
Weather by CustomWeather, © 2014

See weather overviewHow to use our weather pages